Regional Weather Roundup
Issued by NWS Albany, NY

Home | Current Version | Previous Version | Text Only | Print | Product List | Glossary On
Versions: 1 2 3 4 5 6 7 8 9 10 11 12 13 14 15 16 17 18 19 20 21 22 23 24 25 26 27 28 29 30 31 32 33 34 35 36 37 38 39 40 41 42 43 44 45 46 47 48 49 50
000
ASUS41 KALY 160310
RWRALY

NEW YORK STATE HOURLY WEATHER ROUNDUP
NATIONAL WEATHER SERVICE ALBANY NY
1100 PM EDT MON SEP 15 2014

NOTE: "FAIR" INDICATES FEW OR NO CLOUDS BELOW 12,000 FEET WITH NO
SIGNIFICANT WEATHER AND/OR NO OBSTRUCTIONS TO VISIBILITY.

NYZ032-033-038>043-046>054-057>066-NYZ062>081-160400-
EAST


CITY           SKY/WX    TMP DP  RH WIND       PRES   REMARKS
ALBANY         CLOUDY    55  46  71 CALM      30.10R
GLENS FALLS    CLOUDY    52  49  89 CALM      30.09S
POUGHKEEPSIE   PTCLDY    53  50  89 E3        30.08F
NEWBURGH       CLEAR     54  50  87 CALM      30.10S
MONTGOMERY     PTCLDY    50  48  93 CALM      30.09S
WHITE PLAINS   PTCLDY    56  50  80 CALM      30.10R
ISLIP          MOCLDY    57  49  74 CALM      30.08F
NEW YORK CITY  MOCLDY    65  51  60 SW7       30.09S
CENTRAL PARK   PTCLDY    63  51  65 VRB3      30.13R
$$

NYZ005>009-017-018-044>046-055-056-160400-
CENTRAL


CITY           SKY/WX    TMP DP  RH WIND       PRES   REMARKS
FULTON         CLOUDY    55  53  93 CALM      30.05F
SYRACUSE       LGT RAIN  58  55  90 NW5       30.05F
ROME           LGT RAIN  56  51  84 CALM      30.06F
ELMIRA         CLOUDY    59  52  77 NE3       30.05S
BINGHAMTON     LGT RAIN  56  47  71 SW6       30.06F
MONTICELLO     PTCLDY    52  48  87 CALM      30.10F
$$

NYZ026>034-041>043-160400-
NORTH


CITY           SKY/WX    TMP DP  RH WIND       PRES   REMARKS
WATERTOWN      CLOUDY    56  49  77 S5        30.05S
FORT DRUM      NOT AVBL
MASSENA        LGT RAIN  53  51  93 SW6       30.05S
SARANAC LAKE   CLOUDY    49  47  93 SW3       30.05S
PLATTSBURGH    CLOUDY    52  49  89 CALM      30.04F
$$

NYZ001>004-010>016-019>021-160400-
WEST


CITY           SKY/WX    TMP DP  RH WIND       PRES   REMARKS
NIAGARA FALLS  LGT RAIN  55  52  89 CALM      30.05F
BUFFALO        LGT RAIN  55  53  93 SW3       30.06F FOG
DUNKIRK        HVY RAIN  56  55  97 MISG      30.07S FOG
JAMESTOWN      CLOUDY    54  52  94 NW5       30.08R
WELLSVILLE     LGT RAIN  53  51  93 CALM      30.09R
ROCHESTER      LGT RAIN  57  53  86 CALM      30.06F
PENN YAN       LGT RAIN  55  53  93 NE3       30.06F
$$

             KEY
       WCI = WIND CHILL INDEX
       VSB = VISIBILITY
       HX  = HEAT INDEX
$$



USA.gov is the U.S. government's official web portal to all federal, state and local government web resources and services.